Regional Weather Roundup
Issued by NWS

Home | Current Version | Previous Version | Text Only | Print | Product List | Glossary Off
Versions: 1 2 3 4 5 6 7 8 9 10 11 12 13 14 15 16 17 18 19 20 21 22 23 24 25 26 27 28 29 30 31 32 33 34 35 36 37 38 39 40 41 42 43 44 45 46 47 48 49 50

000
ASUS43 KOAX 202010
RWRNE

WEATHER ROUNDUP FOR NEBRASKA
NATIONAL WEATHER SERVICE OMAHA NE
300 PM CDT WED SEP 20 2017

NOTES: SATELLITE DATA IS BEING USED TO AUGMENT CLOUD COVER ABOVE
       12000 FEET.
       "FAIR" INDICATES FEW OR NO CLOUDS BELOW 12,000 FEET WITH NO
       SIGNIFICANT WEATHER AND/OR OBSTRUCTIONS TO VISIBILITY.


NEZ001>004-019>022-054>056-202100-
NEBRASKA PANHANDLE

CITY           SKY/WX    TMP DP  RH WIND       PRES   REMARKS
SCOTTSBLUFF    SUNNY     74  37  26 S14G22    29.86F
ALLIANCE       SUNNY     71  31  22 S14G21    29.88F
CHADRON        SUNNY     75  24  15 W21G30    29.81F
GORDON         FAIR      72  25  17 SW20G26   29.84F
KIMBALL        SUNNY     69  33  26 S18G28    29.93F
SIDNEY         SUNNY     70  32  24 S16G22    29.93F
$$

NEZ057>060-069>072-079>082-202100-
SOUTHWEST NEBRASKA

CITY           SKY/WX    TMP DP  RH WIND       PRES   REMARKS
NORTH PLATTE   SUNNY     75  34  22 S7        29.90F
IMPERIAL       SUNNY     74  23  15 MISG      29.91F
LEXINGTON      SUNNY     76  32  20 CALM      29.90S
MCCOOK         SUNNY     78  31  17 W3        29.89F
OGALLALA       SUNNY     75  25  15 N3        29.90F
$$

NEZ005>010-023>029-035>040-094-202100-
NORTH CENTRAL NEBRASKA

CITY           SKY/WX    TMP DP  RH WIND       PRES   REMARKS
VALENTINE      SUNNY     75  25  15 SW13      29.86F
AINSWORTH      SUNNY     73  33  23 W7        29.87F
BROKEN BOW     SUNNY     76  34  21 VRB3      29.88F
O`NEILL        SUNNY     73  43  33 SW8       29.88S
ORD            SUNNY     75  40  28 VRB3      29.87F
THEDFORD       SUNNY     74  31  21 SW7       29.89F
$$

NEZ041-046>049-061>064-073>077-083>087-202100-
SOUTH CENTRAL NEBRASKA

CITY           SKY/WX    TMP DP  RH WIND       PRES   REMARKS
GRAND ISLAND   SUNNY     76  41  28 VRB7      29.89S
AURORA         SUNNY     76  41  28 N9G16     29.88S
HASTINGS       SUNNY     77  39  25 NW6       29.89F
HEBRON         SUNNY     82  48  30 N7        29.84F
HOLDREGE       SUNNY     75  33  21 NE5       29.90S
KEARNEY        SUNNY     76  39  26 NE8       29.90S
YORK           SUNNY     75  45  33 NE7       29.87F
$$

NEZ011>018-030>034-042>045-202100-
NORTHEAST NEBRASKA

CITY           SKY/WX    TMP DP  RH WIND       PRES   REMARKS
NORFOLK        SUNNY     75  43  31 W9        29.87S
ALBION         SUNNY     75  46  35 N5        29.88F HAZE
BLAIR          SUNNY     77  53  43 N10G16    29.85S
COLUMBUS       SUNNY     78  41  26 N8        29.88S
FREMONT        SUNNY     77  49  37 NW10      29.87R
TEKAMAH        SUNNY     78  51  38 N9G16     29.85S
WAYNE          SUNNY     74  44  34 NW7       29.88S
$$

NEZ050>053-065>068-078-088>093-202100-
SOUTHEAST NEBRASKA

CITY           SKY/WX    TMP DP  RH WIND       PRES   REMARKS
LINCOLN        SUNNY     81  52  36 NW9       29.85S
OMAHA EPPLEY   SUNNY     80  55  42 N14       29.83S
BEATRICE       SUNNY     83  56  39 N12       29.83S
FALLS CITY     PTSUNNY   83  64  52 NW9       29.79R
NEBRASKA CITY  SUNNY     80  59  48 NE9       29.82S
PLATTSMOUTH    SUNNY     80  57  45 N6        29.83S
$$

NEZ044-045-051>053-067-202100-
OMAHA AREA

CITY           SKY/WX    TMP DP  RH WIND       PRES   REMARKS
OMAHA EPPLEY   SUNNY     80  55  42 N14       29.83S
BLAIR          SUNNY     77  53  43 N10G16    29.85S
FREMONT        SUNNY     77  49  37 NW10      29.87R
MILLARD        SUNNY     80  56  43 NW12      29.83F
OFFUTT AFB     SUNNY     80  57  44 N8        29.82S
PLATTSMOUTH    SUNNY     80  57  45 N6        29.83S
WAHOO          FAIR      78  48  34 N10       29.85S
$$




USA.gov is the U.S. government's official web portal to all federal, state and local government web resources and services.